Data for 11/11/2016

Time Sea-Level Adjusted Pressure Absolute Pressure Temperature Relative Humidity Dew Point   
(mb) (inHg) (mb) (inHg) (C) (F) (%) (C) (F)
00:05 1027 30.33 857 25.31 6.3 43.3 63 -0.3 31.4
00:10 1027 30.33 857 25.31 6.3 43.3 63 -0.3 31.5
00:15 1027 30.33 857 25.31 6.2 43.1 64 -0.2 31.6
00:20 1027 30.33 857 25.31 6 42.8 64 -0.3 31.5
00:25 1027 30.33 857 25.31 5.9 42.7 64 -0.3 31.4
00:30 1027 30.33 857 25.31 6.2 43.1 63 -0.4 31.2
00:35 1027 30.33 857 25.31 6.3 43.4 63 -0.2 31.6
00:40 1027 30.33 857 25.31 6.4 43.5 62 -0.3 31.5
00:45 1027 30.33 857 25.31 6.4 43.5 62 -0.3 31.4
00:50 1027 30.33 857 25.31 6.3 43.3 63 -0.3 31.5
00:55 1027 30.33 857 25.31 6.1 43 63 -0.3 31.4
01:00 1027 30.33 857 25.31 6 42.8 64 -0.3 31.5
01:05 1027 30.33 856 25.28 5.9 42.6 65 -0.3 31.5
01:10 1027 30.33 856 25.28 5.8 42.4 64 -0.4 31.2
01:15 1027 30.33 856 25.28 5.8 42.5 65 -0.3 31.4
01:20 1027 30.33 856 25.28 5.8 42.4 65 -0.4 31.3
01:25 1027 30.33 856 25.28 5.7 42.2 64 -0.5 31
01:30 1027 30.33 856 25.28 5.8 42.4 64 -0.5 31
01:35 1027 30.33 856 25.28 5.6 42.1 65 -0.5 31.1
01:40 1027 30.33 856 25.28 5.5 41.8 65 -0.5 31.1
01:45 1027 30.33 856 25.28 5.5 41.8 65 -0.5 31.1
01:50 1027 30.33 856 25.28 5.5 41.8 65 -0.6 31
01:55 1027 30.33 856 25.28 5.4 41.7 66 -0.5 31.1
02:00 1027 30.33 856 25.28 5.5 41.9 65 -0.6 31
02:05 1027 30.33 856 25.28 5.6 42 65 -0.5 31.1
02:10 1027 30.33 856 25.28 5.5 42 65 -0.5 31.1
02:15 1027 30.33 856 25.28 5.6 42.1 65 -0.5 31
02:20 1027 30.33 856 25.28 5.6 42.2 65 -0.5 31.2
02:25 1027 30.33 856 25.28 5.7 42.2 64 -0.6 31
02:30 1027 30.33 856 25.28 5.7 42.2 64 -0.5 31.1
02:35 1027 30.33 856 25.28 5.4 41.8 66 -0.4 31.3
02:40 1027 30.33 856 25.28 5.1 41.2 67 -0.5 31.1
02:45 1027 30.33 856 25.28 5.1 41.1 67 -0.6 30.9
02:50 1027 30.33 856 25.28 5 41 67 -0.6 31
02:55 1027 30.33 856 25.28 4.9 40.8 67 -0.6 30.8
03:00 1027 30.33 856 25.28 5 40.9 67 -0.7 30.8
03:05 1027 30.33 856 25.28 5 41 67 -0.7 30.7
03:10 1027 30.33 856 25.28 5.3 41.5 65 -0.7 30.7
03:15 1027 30.33 856 25.28 5 40.9 67 -0.6 30.9
03:20 1027 30.33 856 25.28 4.8 40.7 67 -0.8 30.5
03:25 1027 30.33 856 25.28 4.9 40.8 67 -0.8 30.6
03:30 1027 30.33 856 25.28 5 40.9 66 -0.8 30.5
03:35 1027 30.33 856 25.28 5.1 41.2 65 -0.9 30.4
03:40 1027 30.33 856 25.28 5.2 41.4 63 -1.3 29.7
03:45 1027 30.33 856 25.28 5.1 41.1 63 -1.4 29.5
03:50 1027 30.33 856 25.28 5 41 63 -1.5 29.2
03:55 1027 30.33 856 25.28 4.7 40.5 65 -1.3 29.7
04:00 1026 30.3 856 25.28 4.9 40.8 66 -0.9 30.3
04:05 1026 30.3 856 25.28 5.2 41.3 64 -1 30.2
04:10 1026 30.3 856 25.28 5 41.1 65 -0.9 30.4
04:15 1026 30.3 856 25.28 5 41 65 -1.1 30
04:20 1026 30.3 856 25.28 4.9 40.8 65 -1.1 30.1
04:25 1026 30.3 855 25.25 4.8 40.7 66 -1 30.3
04:30 1026 30.3 855 25.25 4.7 40.4 67 -1 30.1
04:35 1026 30.3 855 25.25 4.1 39.4 69 -1.1 30.1
04:40 1026 30.3 855 25.25 3.8 38.8 70 -1.1 30
04:45 1026 30.3 855 25.25 3.9 39 70 -1.1 30.1
04:50 1026 30.3 855 25.25 4 39.2 71 -0.9 30.4
04:55 1026 30.3 855 25.25 4 39.2 70 -1 30.1
05:00 1026 30.3 855 25.25 4 39.2 70 -1 30.3
05:05 1026 30.3 855 25.25 4 39.2 69 -1.1 30
05:10 1026 30.3 855 25.25 3.9 39.1 70 -1.1 30
05:15 1026 30.3 855 25.25 3.9 39 70 -1.2 29.9
05:20 1026 30.3 855 25.25 3.7 38.6 70 -1.3 29.7
05:25 1026 30.3 855 25.25 3.7 38.6 70 -1.3 29.7
05:30 1026 30.3 855 25.25 3.6 38.5 70 -1.3 29.7
05:35 1026 30.3 855 25.25 3.7 38.6 70 -1.3 29.7
05:40 1026 30.3 855 25.25 3.9 39 69 -1.2 29.8
05:45 1026 30.3 855 25.25 3.9 39.1 69 -1.2 29.9
05:50 1026 30.3 855 25.25 4 39.2 69 -1.2 29.8
05:55 1026 30.3 855 25.25 4.3 39.7 68 -1.1 30.1
06:00 1026 30.3 855 25.25 4.3 39.7 68 -1.1 30
06:05 1026 30.3 855 25.25 4.2 39.5 68 -1.2 29.8
06:10 1026 30.3 855 25.25 3.9 39 69 -1.2 29.9
06:15 1026 30.3 855 25.25 3.9 39 69 -1.3 29.6
06:20 1026 30.3 855 25.25 4 39.2 69 -1.2 29.8
06:25 1026 30.3 855 25.25 3.9 39 69 -1.2 29.8
06:30 1026 30.3 855 25.25 3.9 39.1 69 -1.2 29.9
06:35 1026 30.3 855 25.25 3.8 38.8 70 -1.2 29.8
06:40 1026 30.3 855 25.25 3.7 38.7 70 -1.3 29.7
06:45 1026 30.3 855 25.25 3.6 38.4 70 -1.4 29.4
06:50 1026 30.3 855 25.25 3.4 38.1 70 -1.5 29.4
06:55 1026 30.3 855 25.25 3.3 37.9 71 -1.5 29.3
07:00 1026 30.3 855 25.25 4 39.1 68 -1.3 29.7
07:05 1026 30.3 855 25.25 4.1 39.5 68 -1.2 29.8
07:10 1026 30.3 855 25.25 4 39.2 70 -1 30.2
07:15 1026 30.3 855 25.25 3.6 38.4 71 -1.1 29.9
07:20 1026 30.3 855 25.25 3.6 38.5 70 -1.3 29.7
07:25 1026 30.3 855 25.25 3.7 38.7 71 -1.1 29.9
07:30 1026 30.3 855 25.25 3.5 38.3 70 -1.4 29.5
07:35 1026 30.3 855 25.25 3.4 38.1 71 -1.3 29.6
07:40 1026 30.3 855 25.25 3.2 37.8 72 -1.3 29.6
07:45 1026 30.3 855 25.25 3.3 37.9 71 -1.4 29.4
07:50 1026 30.3 855 25.25 3.4 38.2 70 -1.4 29.4
07:55 1026 30.3 855 25.25 3.5 38.2 71 -1.4 29.5
08:00 1026 30.3 855 25.25 3.6 38.6 69 -1.4 29.4
08:05 1026 30.3 855 25.25 4.3 39.7 66 -1.5 29.4
08:10 1026 30.3 855 25.25 4.5 40.2 65 -1.4 29.5
08:15 1026 30.3 855 25.25 5 40.9 64 -1.3 29.6
08:20 1026 30.3 855 25.25 5.3 41.5 63 -1.3 29.7
08:25 1026 30.3 855 25.25 5.4 41.7 61 -1.4 29.5
08:30 1026 30.3 855 25.25 5.6 42 61 -1.3 29.6
08:35 1026 30.3 855 25.25 4.9 40.9 63 -1.5 29.3
08:40 1026 30.3 855 25.25 4.6 40.3 64 -1.5 29.2
08:45 1026 30.3 855 25.25 4.9 40.9 63 -1.5 29.2
08:50 1026 30.3 855 25.25 5.3 41.5 63 -1.2 29.8
08:55 1026 30.3 855 25.25 5.8 42.5 59 -1.5 29.3
09:00 1026 30.3 855 25.25 6.1 43 60 -1.1 30
09:05 1026 30.3 855 25.25 5.8 42.5 59 -1.4 29.4
09:10 1026 30.3 855 25.25 6.1 43 57 -1.7 28.9
09:15 1026 30.3 855 25.25 6.2 43.2 58 -1.3 29.6
09:20 1026 30.3 855 25.25 6.4 43.4 59 -1.1 30
09:25 1026 30.3 855 25.25 6.5 43.7 59 -0.9 30.4
09:30 1026 30.3 855 25.25 6.7 44.1 57 -1.1 30.1
09:35 1026 30.3 855 25.25 7.1 44.8 58 -0.7 30.8
09:40 1026 30.3 855 25.25 7.1 44.8 57 -0.8 30.6
09:45 1026 30.3 855 25.25 7.4 45.3 57 -0.6 30.8
09:50 1026 30.3 855 25.25 7.7 45.8 56 -0.4 31.3
09:55 1026 30.3 855 25.25 7.7 45.9 54 -0.9 30.4
10:00 1025 30.27 855 25.25 8.3 46.9 53 -0.6 30.9
10:05 1025 30.27 855 25.25 8.9 48.1 53 -0.2 31.6
10:10 1025 30.27 855 25.25 9.4 48.9 50 -0.3 31.4
10:15 1025 30.27 855 25.25 9.9 49.7 49 -0.3 31.5
10:20 1025 30.27 855 25.25 10.1 50.2 48 -0.4 31.2
10:25 1025 30.27 855 25.25 9.9 49.8 49 -0.3 31.5
10:30 1025 30.27 855 25.25 9.9 49.8 48 -0.4 31.3
10:35 1025 30.27 855 25.25 10 50 49 -0.1 31.8
10:40 1025 30.27 855 25.25 10.1 50.1 48 -0.5 31
10:45 1025 30.27 855 25.25 10.2 50.4 47 -0.5 31.1
10:50 1025 30.27 854 25.22 10.6 51.1 46 -0.4 31.2
10:55 1025 30.27 854 25.22 11.2 52.1 44 -0.6 31
11:00 1025 30.27 854 25.22 11.1 51.9 45 -0.5 31.2
11:05 1025 30.27 854 25.22 11.3 52.3 45 -0.3 31.4
11:10 1025 30.27 854 25.22 11.3 52.3 45 -0.2 31.7
11:15 1025 30.27 854 25.22 11.8 53.3 44 0 32
11:20 1025 30.27 854 25.22 11.7 53 45 0.2 32.3
11:25 1025 30.27 854 25.22 12.1 53.7 43 -0.2 31.6
11:30 1025 30.27 854 25.22 12.4 54.4 42 -0.1 31.9
11:35 1025 30.27 854 25.22 12.5 54.4 42 0.1 32.1
11:40 1024 30.24 854 25.22 12.2 54 43 -0 32
11:45 1024 30.24 854 25.22 12.1 53.7 43 -0.1 31.8
11:50 1024 30.24 853 25.19 12.6 54.6 41 -0.4 31.2
11:55 1024 30.24 853 25.19 12.8 55 41 -0.1 31.9
12:00 1024 30.24 853 25.19 13.1 55.6 40 -0.1 31.7
12:05 1024 30.24 853 25.19 14.2 57.5 37 -0.3 31.4
12:10 1024 30.24 853 25.19 14.9 58.8 35 -0.2 31.7
12:15 1024 30.24 853 25.19 14.8 58.7 35 -0.3 31.4
12:20 1024 30.24 853 25.19 15.1 59.2 36 0.1 32.1
12:25 1024 30.24 853 25.19 14.8 58.6 37 0.5 32.9
12:30 1024 30.24 853 25.19 14.6 58.2 36 -0.1 31.8
12:35 1023 30.21 853 25.19 15 59 35 -0.3 31.5
12:40 1023 30.21 853 25.19 15.1 59.2 35 -0.3 31.5
12:45 1023 30.21 852 25.16 15 59 35 -0.1 31.8
12:50 1023 30.21 852 25.16 14.9 58.8 35 -0.4 31.3
12:55 1023 30.21 852 25.16 14.9 58.8 36 0.2 32.3
13:00 1023 30.21 852 25.16 15.1 59.2 34 -0.6 30.9
13:05 1023 30.21 852 25.16 16 60.8 32 -0.5 31.2
13:10 1023 30.21 852 25.16 16.4 61.4 32 -0.1 31.8
13:15 1023 30.21 852 25.16 16.4 61.6 32 -0.2 31.7
13:20 1023 30.21 852 25.16 16.4 61.5 34 0.5 33
13:25 1023 30.21 852 25.16 15 59 36 0.1 32.1
13:30 1023 30.21 852 25.16 15 59.1 36 0.2 32.4
13:35 1023 30.21 852 25.16 15.1 59.3 35 -0.2 31.6
13:40 1023 30.21 852 25.16 15.6 60 36 0.7 33.3
13:45 1023 30.21 852 25.16 15.4 59.6 36 0.3 32.5
13:50 1023 30.21 852 25.16 15.3 59.5 37 0.6 33.1
13:55 1022 30.18 852 25.16 15.9 60.6 34 0.1 32.2
14:00 1022 30.18 852 25.16 16.2 61.2 34 0.4 32.7
14:05 1022 30.18 852 25.16 16.5 61.7 34 0.6 33.2
14:10 1022 30.18 852 25.16 16.5 61.7 33 0.4 32.7
14:15 1022 30.18 851 25.13 16.4 61.5 35 1.1 34.1
14:20 1022 30.18 851 25.13 16.4 61.5 33 0.4 32.7
14:25 1022 30.18 851 25.13 16.9 62.3 33 0.6 33.1
14:30 1022 30.18 851 25.13 17.5 63.5 31 0.4 32.8
14:35 1022 30.18 851 25.13 17.8 64 31 0.6 33.1
14:40 1022 30.18 851 25.13 17.7 63.9 32 0.8 33.5
14:45 1022 30.18 851 25.13 17.4 63.3 34 1.5 34.7
14:50 1022 30.18 851 25.13 16.9 62.4 33 0.8 33.4
14:55 1022 30.18 851 25.13 16.5 61.8 36 1.5 34.7
15:00 1022 30.18 851 25.13 16.1 60.9 36 1.2 34.2
15:05 1022 30.18 851 25.13 16.6 61.9 34 0.7 33.3
15:10 1022 30.18 851 25.13 16.9 62.5 34 1.1 34
15:15 1022 30.18 851 25.13 16.8 62.2 35 1.2 34.2
15:20 1022 30.18 851 25.13 16.1 60.9 37 1.3 34.4
15:25 1022 30.18 851 25.13 16 60.8 37 1.6 34.8
15:30 1022 30.18 851 25.13 15.5 59.9 39 1.8 35.3
15:35 1022 30.18 851 25.13 15.3 59.5 39 1.6 34.9
15:40 1022 30.18 851 25.13 15.3 59.6 40 1.7 35.1
15:45 1022 30.18 851 25.13 15.6 60.2 37 1.3 34.3
15:50 1022 30.18 851 25.13 15.8 60.5 39 2 35.5
15:55 1022 30.18 851 25.13 15.3 59.6 39 1.6 34.8
16:00 1022 30.18 851 25.13 15.7 60.2 39 1.8 35.2
16:05 1022 30.18 851 25.13 15.3 59.5 40 1.9 35.4
16:10 1022 30.18 851 25.13 15.1 59.2 40 1.8 35.3
16:15 1022 30.18 851 25.13 15 59.1 41 2 35.6
16:20 1022 30.18 851 25.13 14.8 58.7 41 1.8 35.3
16:25 1022 30.18 851 25.13 14.8 58.6 41 1.9 35.4
16:30 1022 30.18 851 25.13 14.8 58.7 41 1.8 35.2
16:35 1022 30.18 851 25.13 14.7 58.5 41 1.9 35.4
16:40 1022 30.18 851 25.13 14.5 58.2 42 1.9 35.4
16:45 1022 30.18 851 25.13 14.4 58 43 2 35.6
16:50 1022 30.18 851 25.13 14.5 58 42 1.8 35.2
16:55 1022 30.18 851 25.13 14.4 57.8 43 2 35.7
17:00 1022 30.18 851 25.13 14.1 57.4 43 1.8 35.3
17:05 1022 30.18 851 25.13 13.9 57 44 1.9 35.5
17:10 1022 30.18 851 25.13 13.7 56.6 44 1.9 35.4
17:15 1022 30.18 851 25.13 13.3 55.9 47 2.2 35.9
17:20 1022 30.18 851 25.13 12.8 55 48 2.1 35.7
17:25 1022 30.18 851 25.13 12.7 54.8 45 1 33.7
17:30 1022 30.18 851 25.13 12.2 54 46 1 33.8
17:35 1022 30.18 851 25.13 11.9 53.4 46 0.8 33.5
17:40 1022 30.18 851 25.13 11.4 52.4 50 1.3 34.4
17:45 1022 30.18 851 25.13 10.7 51.3 54 1.8 35.3
17:50 1022 30.18 851 25.13 10.6 51.1 55 2 35.5
17:55 1022 30.18 851 25.13 10.6 51.1 52 1.2 34.1
18:00 1022 30.18 851 25.13 11.1 51.9 51 1.3 34.4
18:05 1022 30.18 851 25.13 10.6 51.1 51 1 33.8
18:10 1022 30.18 851 25.13 10.7 51.2 49 0.6 33.1
18:15 1022 30.18 851 25.13 11.5 52.7 48 0.9 33.6
18:20 1022 30.18 851 25.13 11.3 52.4 49 1 33.8
18:25 1022 30.18 851 25.13 11.2 52.2 49 1 33.9
18:30 1022 30.18 851 25.13 10.2 50.4 52 0.8 33.4
18:35 1022 30.18 851 25.13 10.4 50.8 48 -0 32
18:40 1021 30.15 851 25.13 11.1 51.9 46 -0.1 31.7
18:45 1021 30.15 851 25.13 11.6 52.9 45 0.2 32.4
18:50 1022 30.18 851 25.13 11.1 52 46 0 32.1
18:55 1022 30.18 851 25.13 10.9 51.6 46 -0.1 31.8
19:00 1022 30.18 851 25.13 10.9 51.6 46 -0.4 31.3
19:05 1022 30.18 851 25.13 10.9 51.6 47 0.1 32.1
19:10 1022 30.18 851 25.13 10.7 51.3 46 -0.3 31.5
19:15 1022 30.18 851 25.13 10.5 50.9 47 -0.2 31.7
19:20 1022 30.18 851 25.13 10.5 51 45 -0.8 30.6
19:25 1022 30.18 851 25.13 11 51.7 45 -0.5 31.1
19:30 1022 30.18 851 25.13 11 51.7 43 -0.9 30.3
19:35 1022 30.18 851 25.13 11 51.9 45 -0.5 31.1
19:40 1022 30.18 851 25.13 10.6 51 45 -0.8 30.5
19:45 1022 30.18 851 25.13 10.7 51.3 45 -0.8 30.6
19:50 1022 30.18 851 25.13 10.6 51.1 44 -1 30.2
19:55 1022 30.18 851 25.13 10.7 51.3 44 -0.9 30.4
20:00 1022 30.18 851 25.13 10.6 51.2 45 -0.9 30.4
20:05 1021 30.15 851 25.13 10.5 50.8 45 -0.8 30.6
20:10 1021 30.15 851 25.13 10.4 50.7 45 -1 30.1
20:15 1021 30.15 851 25.13 10.3 50.5 45 -1.1 30
20:20 1021 30.15 851 25.13 10.4 50.8 44 -1.1 30
20:25 1021 30.15 851 25.13 10.1 50.1 45 -1.2 29.9
20:30 1021 30.15 851 25.13 10.1 50.2 45 -1.2 29.8
20:35 1021 30.15 851 25.13 10.1 50.1 45 -1.2 29.8
20:40 1021 30.15 851 25.13 9.8 49.6 46 -1.2 29.8
20:45 1021 30.15 851 25.13 9.6 49.3 46 -1.4 29.5
20:50 1021 30.15 851 25.13 9.9 49.9 44 -1.7 29
20:55 1021 30.15 851 25.13 10.2 50.4 46 -1 30.2
21:00 1021 30.15 851 25.13 9.5 49.1 47 -1.3 29.6
21:05 1022 30.18 851 25.13 9.6 49.2 46 -1.4 29.4
21:10 1022 30.18 851 25.13 9.4 48.9 46 -1.5 29.3
21:15 1022 30.18 851 25.13 9.1 48.5 46 -1.8 28.8
21:20 1022 30.18 851 25.13 9.4 49 45 -1.8 28.8
21:25 1022 30.18 851 25.13 9.2 48.5 47 -1.5 29.2
21:30 1022 30.18 851 25.13 8.7 47.6 48 -1.5 29.2
21:35 1022 30.18 851 25.13 8.6 47.4 46 -2.3 27.9
21:40 1022 30.18 851 25.13 9.6 49.2 45 -1.6 29.1
21:45 1022 30.18 851 25.13 9.5 49.1 44 -2 28.4
21:50 1022 30.18 851 25.13 10.1 50.1 43 -2 28.3
21:55 1022 30.18 851 25.13 10.2 50.3 42 -2.1 28.3
22:00 1022 30.18 851 25.13 9.6 49.3 44 -2 28.4
22:05 1022 30.18 851 25.13 9.6 49.4 44 -2 28.5
22:10 1022 30.18 851 25.13 9.5 49.1 44 -2 28.3
22:15 1022 30.18 851 25.13 9.8 49.6 44 -2 28.4
22:20 1021 30.15 851 25.13 9.6 49.3 45 -1.9 28.6
22:25 1021 30.15 851 25.13 9.3 48.8 45 -1.9 28.6
22:30 1021 30.15 851 25.13 9.1 48.5 46 -1.9 28.6
22:35 1021 30.15 851 25.13 9 48.3 46 -1.9 28.6
22:40 1021 30.15 851 25.13 8.9 48 47 -1.8 28.7
22:45 1021 30.15 851 25.13 8.5 47.2 48 -1.8 28.7
22:50 1021 30.15 850 25.1 8.3 47 49 -1.8 28.7
22:55 1021 30.15 850 25.1 8.1 46.6 50 -1.8 28.8
23:00 1021 30.15 850 25.1 8.1 46.5 49 -2 28.4
23:05 1021 30.15 850 25.1 8 46.3 50 -1.9 28.6
23:10 1021 30.15 850 25.1 7.9 46.2 50 -2 28.4
23:15 1021 30.15 850 25.1 7.8 46 50 -2 28.4
23:20 1021 30.15 850 25.1 7.7 45.9 50 -2.1 28.2
23:25 1021 30.15 850 25.1 8 46.4 49 -2.1 28.1
23:30 1021 30.15 850 25.1 8.2 46.8 48 -2.2 28
23:35 1021 30.15 850 25.1 8.3 47 48 -2.1 28.2
23:40 1021 30.15 850 25.1 8.2 46.7 49 -2 28.4
23:45 1021 30.15 850 25.1 8.1 46.5 48 -2.3 27.9
23:50 1021 30.15 850 25.1 8.4 47.1 47 -2.3 27.8
23:55 1021 30.15 850 25.1 8.4 47.2 47 -2.1 28.1
24:00 1021 30.15 850 25.1 8.3 46.9 48 -2.1 28.2